Orbital Elements at Epoch 2459200.5 (2020-Dec-17.0) TDB
Reference: JPL 18 (heliocentric ecliptic J2000)
Element | Value | Uncertainty (1-sigma) | Units |
e | .1251425498466522 | 3.8891e-08 | |
a | 2.910958498181727 | 2.2507e-08 | au |
q | 2.546673729221484 | 1.0734e-07 | au |
i | 7.705451377932962 | 3.9086e-06 | deg |
node | 131.6235045495756 | 3.8853e-05 | deg |
peri | 199.7695637335116 | 4.5847e-05 | deg |
M | 74.72861128933825 | 2.2518e-05 | deg |
tp | 2458823.937682312054 (2019-Dec-06.43768231) | 0.00011459 | TDB |
period | 1814.063342389473 4.97 | 2.1039e-05 5.76e-08 | d yr |
n | .1984495202498333 | 2.3015e-09 | deg/d |
Q | 3.275243267141969 | 2.5323e-08 | au |
|
| | Orbit Determination Parameters
Additional Information
|